Home > Weather > Charlotte > Past weeks

Flag for USA Past Weather in Charlotte, North Carolina, USA — Yesterday and Last 2 Weeks

Now
94 °F

Passing clouds.


Feels Like: 96 °F
Forecast: 77 / 95 °F
Wind: 15 mph from West

Location: Charlotte / Douglas International Airport

Current Time: Jul 28, 2016 at 6:35:22 PM

Latest Report: Jul 28, 2016 at 5:52 PM


Visibility: 10 mi

Pressure: 29.85 "Hg

Humidity: 38%

Dew Point: 65 °F

Location of CharlotteLocation

Past Weather in Charlotte — Graph

°F

Charlotte Temperature Yesterday

Maximum temperature yesterday: 98 °F (at 4:52 PM)
Minimum temperature yesterday: 77 °F (at 5:52 AM)
Average temperature yesterday: 88 °F

High & Low Weather Summary for the Past Weeks

 TemperatureHumidityPressure
High98 °F (Jul 26, 3:52 PM)97% (Jul 17, 7:52 AM)30.25 "Hg (Jul 17, 7:52 AM)
Low69 °F (Jul 16, 5:52 PM)32% (Jul 14, 2:52 PM)29.85 "Hg (Jul 28, 4:52 PM)
Average83 °F65%30.05 "Hg
* Reported Jul 13 4:52 PM — Jul 28 4:52 PM, Charlotte, Weather by CustomWeather, © 2016

Note: Actual official high and low records may vary slightly from our data, if they occured in-between our weather recording intervals... More about our weather records

Advertising

Charlotte Weather History for the Previous 24 Hours

Scroll right to see more
 ConditionsComfort  
Time TempWeatherWind HumidityBarometerVisibility
4:52 PM
Thu, Jul 28
96 °FScattered clouds.18 mph37%29.85 "Hg10 mi
3:52 PM97 °FScattered clouds.18 mph35%29.86 "Hg10 mi
2:52 PM96 °FScattered clouds.13 mph35%29.88 "Hg10 mi
1:52 PM96 °FScattered clouds.17 mph36%29.90 "Hg10 mi
12:52 PM95 °FPassing clouds.9 mph40%29.91 "Hg10 mi
11:52 AM92 °FSunny.12 mph44%29.93 "Hg10 mi
10:52 AM89 °FPassing clouds.7 mph53%29.94 "Hg10 mi
9:52 AM85 °FPassing clouds.8 mph61%29.96 "Hg10 mi
8:52 AM82 °FScattered clouds.8 mph67%29.96 "Hg10 mi
7:52 AM79 °FScattered clouds.6 mph72%29.95 "Hg10 mi
6:52 AM78 °FPassing clouds.5 mph74%29.94 "Hg10 mi
5:52 AM79 °FPassing clouds.7 mph72%29.92 "Hg10 mi
4:52 AM80 °FPassing clouds.9 mph71%29.92 "Hg10 mi
3:52 AM81 °FPassing clouds.6 mph67%29.92 "Hg10 mi
2:52 AM81 °FPassing clouds.5 mph67%29.94 "Hg10 mi
1:52 AM82 °FPassing clouds.6 mph65%29.95 "Hg10 mi
12:52 AM83 °FClear.6 mph63%29.95 "Hg10 mi
11:52 PM
Wed, Jul 27
86 °FPassing clouds.8 mph57%29.93 "Hg10 mi
10:52 PM87 °FPassing clouds.13 mph57%29.92 "Hg10 mi
9:52 PM86 °FPassing clouds.6 mph59%29.93 "Hg10 mi
8:52 PM89 °FPassing clouds.3 mph52%29.92 "Hg10 mi
7:52 PM93 °FPassing clouds.6 mph44%29.90 "Hg10 mi
6:52 PM96 °FPassing clouds.7 mph38%29.90 "Hg10 mi
Weather by CustomWeather, © 2016

See weather overviewHow to use our weather pages